Visibility
15.0 15.0 15.0 15.0 14.6 15.0 13.5 11.1 10.5 11.8 15.0 13.4 8.5 1.2 4.1 14.6 14.5 15.0 10.4 15.0 15.0 15.0 15.0 15.0 15.0 15.0 15.0 15.0 15.0 15.0 15.0 15.0 15.0 15.0 15.0 15.0 15.0 15.0 15.0 15.0 15.0 15.0 15.0 15.0 15.0 15.0 15.0 15.0 15.0 15.0 15.0 15.0 15.0 15.0
15.0 14.4 15.0 14.7 15.0 12.2 14.8 14.6 12.1 14.9 14.1 15.0 7.2 4.1 0.3 15.0 14.9 14.5 11.4 15.0 15.0 15.0 15.0 15.0 15.0 15.0 15.0 15.0 15.0 15.0 15.0 15.0 15.0 15.0 15.0 15.0 15.0 15.0 15.0 15.0 15.0 15.0 15.0 15.0 15.0 15.0 15.0 15.0 15.0 15.0 15.0 15.0 15.0 15.0
15.0 15.0 15.0 15.0 15.0 15.0 13.2 10.4 11.5 15.0 15.0 12.3 15.0 5.6 0.1 14.9 8.4 15.0 13.8 15.0 14.5 12.8 15.0 15.0 15.0 15.0 15.0 15.0 15.0 15.0 15.0 15.0 15.0 15.0 15.0 15.0 15.0 15.0 15.0 15.0 15.0 15.0 15.0 15.0 15.0 15.0 15.0 15.0 15.0 15.0 15.0 15.0 15.0 15.0
15.0 15.0 15.0 15.0 15.0 15.0 15.0 15.0 11.5 15.0 15.0 15.0 15.0 6.4 1.2 6.3 11.7 13.2 5.8 15.0 15.0 6.9 15.0 15.0 15.0 15.0 15.0 15.0 15.0 15.0 15.0 15.0 15.0 15.0 15.0 15.0 15.0 15.0 15.0 15.0 15.0 15.0 15.0 15.0 15.0 15.0 15.0 15.0 15.0 15.0 15.0 15.0 15.0 15.0
11.4 14.4 15.0 15.0 15.0 15.0 15.0 12.5 13.6 13.0 15.0 12.3 15.0 3.8 0.1 9.0 10.7 8.3 6.2 15.0 15.0 15.0 15.0 15.0 15.0 15.0 15.0 15.0 15.0 15.0 15.0 15.0 15.0 15.0 15.0 15.0 15.0 15.0 15.0 15.0 15.0 15.0 15.0 15.0 15.0 15.0 15.0 15.0 15.0 15.0 15.0 15.0 15.0 15.0
1.5 15.0 14.1 15.0 15.0 15.0 14.1 10.0 14.9 15.0 15.0 9.5 15.0 3.8 1.5 9.2 9.1 5.3 0.0 6.5 15.0 15.0 15.0 15.0 15.0 15.0 15.0 15.0 15.0 15.0 15.0 15.0 15.0 15.0 15.0 15.0 15.0 15.0 15.0 15.0 15.0 15.0 15.0 15.0 15.0 15.0 15.0 15.0 15.0 15.0 15.0 15.0 15.0 15.0
14.9 12.4 8.4 15.0 15.0 14.7 4.2 12.2 15.0 13.7 10.4 9.1 10.0 0.6 3.7 9.4 15.0 0.5 3.1 4.0 15.0 15.0 15.0 15.0 15.0 15.0 15.0 15.0 15.0 15.0 15.0 15.0 15.0 15.0 15.0 15.0 15.0 15.0 15.0 15.0 15.0 15.0 15.0 15.0 15.0 15.0 15.0 15.0 15.0 15.0 15.0 15.0 15.0 15.0
14.6 4.1 6.6 9.8 9.6 10.6 15.0 14.0 15.0 14.6 13.7 14.6 3.5 2.3 4.7 8.5 8.8 3.1 15.0 15.0 15.0 15.0 15.0 15.0 2.6 4.1 15.0 13.8 1.3 15.0 15.0 15.0 15.0 9.6 12.7 15.0 15.0 15.0 4.0 15.0 15.0 15.0 15.0 15.0 15.0 15.0 15.0 15.0 15.0 15.0 15.0 15.0 15.0 15.0
15.0 13.5 12.5 8.7 15.0 15.0 12.2 15.0 15.0 14.8 13.1 7.2 0.3 3.3 3.5 0.1 0.0 0.1 15.0 15.0 15.0 14.7 15.0 15.0 8.8 0.5 15.0 4.0 7.0 2.5 15.0 3.8 13.3 6.0 15.0 15.0 7.1 2.8 15.0 15.0 15.0 15.0 15.0 15.0 15.0 15.0 15.0 15.0 15.0 15.0 15.0 15.0 15.0 15.0
15.0 13.1 15.0 15.0 14.9 15.0 8.4 12.3 13.9 15.0 14.7 0.1 0.8 0.1 0.1 0.0 9.3 7.3 14.4 0.0 0.3 15.0 15.0 15.0 15.0 0.8 13.9 10.1 0.5 2.5 14.6 6.4 0.9 10.5 4.0 0.5 15.0 15.0 15.0 15.0 15.0 15.0 15.0 15.0 15.0 15.0 15.0 15.0 15.0 15.0 15.0 15.0 15.0 15.0
15.0 15.0 15.0 15.0 14.9 12.6 13.5 14.0 11.8 13.2 0.1 0.0 0.1 0.1 0.1 5.1 0.1 0.1 0.1 0.1 0.1 0.1 15.0 15.0 15.0 5.2 14.9 15.0 3.7 15.0 9.9 14.1 14.4 9.2 12.9 14.6 15.0 15.0 15.0 15.0 15.0 15.0 15.0 15.0 15.0 15.0 15.0 15.0 15.0 15.0 15.0 15.0 15.0 15.0
15.0 13.2 14.9 9.1 11.9 13.0 13.5 12.1 13.3 0.0 0.1 2.2 0.3 2.4 0.0 0.1 0.1 0.2 0.4 1.4 15.0 15.0 13.6 15.0 11.7 15.0 15.0 15.0 15.0 2.5 15.0 15.0 15.0 11.2 1.6 8.6 15.0 15.0 15.0 15.0 15.0 15.0 15.0 15.0 15.0 15.0 15.0 15.0 15.0 15.0 15.0 15.0 15.0 15.0
15.0 12.1 14.0 14.6 14.8 15.0 8.4 12.8 0.1 0.4 15.0 15.0 6.8 0.2 0.2 0.1 0.1 1.7 0.2 5.8 7.9 9.0 6.0 15.0 1.1 0.5 15.0 15.0 6.8 15.0 10.5 5.3 8.4 0.5 6.1 15.0 15.0 15.0 15.0 15.0 15.0 15.0 15.0 15.0 15.0 15.0 15.0 15.0 15.0 15.0 15.0 15.0 15.0 15.0
12.4 13.1 14.2 14.9 13.5 1.7 0.2 0.1 1.2 15.0 15.0 6.2 0.5 0.1 0.5 2.0 15.0 15.0 15.0 15.0 15.0 15.0 15.0 15.0 9.9 15.0 15.0 15.0 15.0 6.2 3.0 14.1 0.3 0.3 15.0 15.0 15.0 15.0 15.0 15.0 15.0 15.0 15.0 15.0 15.0 15.0 13.6 15.0 15.0 15.0 15.0 15.0 15.0 15.0
15.0 9.2 13.6 8.4 6.3 2.5 0.4 3.8 15.0 15.0 15.0 15.0 14.9 15.0 15.0 15.0 15.0 15.0 15.0 15.0 15.0 15.0 15.0 15.0 15.0 15.0 15.0 15.0 15.0 9.6 0.2 0.3 6.2 15.0 15.0 15.0 15.0 15.0 15.0 15.0 15.0 15.0 15.0 15.0 15.0 5.9 8.0 15.0 15.0 15.0 15.0 15.0 15.0 15.0
11.0 7.0 5.0 6.5 10.2 5.6 0.4 15.0 15.0 15.0 15.0 15.0 15.0 15.0 13.5 11.7 3.9 15.0 15.0 15.0 15.0 15.0 15.0 15.0 15.0 15.0 15.0 15.0 15.0 15.0 15.0 15.0 15.0 15.0 15.0 15.0 15.0 15.0 15.0 15.0 15.0 15.0 15.0 15.0 15.0 15.0 15.0 15.0 15.0 15.0 15.0 15.0 15.0 15.0
10.2 0.1 0.4 15.0 5.4 3.5 12.6 15.0 15.0 6.2 15.0 15.0 11.4 15.0 15.0 15.0 15.0 15.0 15.0 15.0 15.0 15.0 15.0 15.0 15.0 15.0 15.0 15.0 15.0 15.0 15.0 15.0 15.0 1.7 0.1 13.1 0.1 0.0 0.0 0.1 15.0 15.0 15.0 15.0 15.0 15.0 15.0 15.0 15.0 15.0 15.0 15.0 15.0 15.0
0.1 1.6 2.0 7.3 13.6 15.0 15.0 15.0 15.0 8.1 15.0 15.0 15.0 9.4 15.0 15.0 15.0 12.7 15.0 15.0 15.0 15.0 15.0 15.0 15.0 15.0 15.0 15.0 15.0 15.0 9.0 1.3 14.9 15.0 0.1 0.2 1.3 0.1 13.6 15.0 15.0 15.0 15.0 15.0 15.0 15.0 15.0 15.0 15.0 15.0 15.0 15.0 15.0 15.0
0.2 4.8 15.0 15.0 15.0 15.0 0.5 0.7 15.0 0.4 0.3 15.0 15.0 15.0 15.0 6.9 15.0 15.0 15.0 15.0 15.0 10.6 15.0 15.0 15.0 15.0 15.0 15.0 15.0 10.8 15.0 15.0 0.1 0.1 0.0 0.0 0.0 1.5 14.2 15.0 15.0 15.0 15.0 15.0 15.0 15.0 15.0 15.0 15.0 15.0 15.0 15.0 15.0 15.0
15.0 15.0 15.0 15.0 15.0 15.0 4.3 0.9 15.0 1.3 0.4 0.4 15.0 3.2 0.6 0.8 2.8 15.0 15.0 15.0 15.0 15.0 14.0 10.2 15.0 15.0 15.0 15.0 15.0 15.0 15.0 15.0 15.0 0.2 0.1 0.2 15.0 15.0 15.0 15.0 15.0 15.0 15.0 15.0 15.0 15.0 15.0 15.0 15.0 15.0 15.0 15.0 15.0 15.0
13.6 15.0 15.0 15.0 15.0 15.0 14.8 5.9 0.2 0.2 0.2 0.2 0.1 0.2 0.1 0.1 0.1 0.1 0.1 6.5 0.8 0.3 6.0 15.0 15.0 15.0 15.0 15.0 15.0 15.0 15.0 15.0 15.0 15.0 15.0 15.0 15.0 15.0 15.0 15.0 15.0 15.0 15.0 15.0 15.0 15.0 15.0 15.0 15.0 15.0 15.0 15.0 15.0 15.0
0.1 15.0 7.8 15.0 15.0 15.0 15.0 15.0 5.4 4.3 2.5 1.3 15.0 0.7 0.1 0.1 0.1 0.1 0.1 0.1 0.1 0.5 15.0 15.0 15.0 15.0 15.0 15.0 15.0 15.0 4.0 6.5 15.0 15.0 15.0 15.0 15.0 15.0 15.0 15.0 15.0 15.0 15.0 15.0 15.0 15.0 15.0 15.0 15.0 15.0 15.0 15.0 4.0 15.0
15.0 15.0 15.0 15.0 15.0 9.7 0.6 15.0 15.0 13.8 0.2 0.5 14.1 7.1 2.0 11.0 3.5 8.3 0.5 0.9 0.2 7.7 15.0 15.0 15.0 15.0 15.0 15.0 15.0 15.0 15.0 15.0 15.0 15.0 15.0 15.0 15.0 15.0 15.0 15.0 15.0 15.0 15.0 15.0 15.0 15.0 15.0 15.0 15.0 15.0 15.0 14.5 15.0 15.0
15.0 0.9 0.2 0.7 15.0 0.2 11.3 15.0 15.0 15.0 1.5 15.0 15.0 14.9 15.0 15.0 15.0 15.0 15.0 15.0 6.2 13.3 15.0 15.0 15.0 15.0 15.0 15.0 15.0 15.0 15.0 15.0 15.0 15.0 15.0 15.0 15.0 15.0 15.0 15.0 15.0 15.0 15.0 15.0 15.0 15.0 15.0 15.0 0.5 15.0 15.0 15.0 15.0 15.0
3.1 0.2 2.4 0.7 15.0 15.0 15.0 15.0 13.7 15.0 0.7 15.0 15.0 9.3 15.0 15.0 15.0 14.8 15.0 12.2 14.4 13.3 15.0 15.0 15.0 15.0 15.0 14.6 14.6 15.0 15.0 15.0 15.0 15.0 15.0 15.0 15.0 15.0 15.0 15.0 15.0 15.0 15.0 15.0 15.0 15.0 15.0 15.0 15.0 15.0 15.0 15.0 15.0 15.0
1.3 12.1 15.0 15.0 15.0 15.0 15.0 15.0 15.0 15.0 15.0 15.0 15.0 15.0 15.0 15.0 15.0 15.0 1.9 1.5 0.5 9.6 12.5 15.0 15.0 15.0 0.3 2.4 15.0 15.0 15.0 15.0 15.0 15.0 15.0 15.0 15.0 15.0 15.0 15.0 15.0 15.0 15.0 15.0 15.0 15.0 15.0 15.0 15.0 15.0 15.0 15.0 15.0 15.0
15.0 15.0 15.0 15.0 15.0 15.0 15.0 15.0 15.0 15.0 15.0 15.0 15.0 15.0 15.0 15.0 15.0 1.2 0.6 1.1 4.9 0.2 15.0 15.0 14.6 9.4 13.6 15.0 15.0 15.0 15.0 15.0 15.0 15.0 15.0 15.0 15.0 15.0 15.0 15.0 15.0 15.0 15.0 15.0 15.0 15.0 15.0 15.0 15.0 15.0 15.0 15.0 15.0 13.4
15.0 15.0 15.0 15.0 15.0 15.0 15.0 15.0 15.0 15.0 15.0 15.0 15.0 15.0 15.0 15.0 2.0 0.3 0.4 2.7 13.8 15.0 15.0 15.0 15.0 15.0 15.0 15.0 15.0 15.0 15.0 15.0 15.0 15.0 15.0 15.0 15.0 15.0 15.0 15.0 15.0 13.1 15.0 15.0 15.0 15.0 15.0 15.0 9.9 9.3 6.6 3.4 5.2 15.0
10.8 15.0 15.0 15.0 15.0 8.3 3.7 14.5 14.7 13.4 15.0 15.0 13.8 1.9 0.8 0.5 0.2 0.2 0.1 0.3 0.3 3.0 5.5 13.5 3.9 15.0 15.0 15.0 15.0 15.0 15.0 15.0 15.0 15.0 15.0 15.0 15.0 15.0 15.0 15.0 15.0 15.0 15.0 15.0 15.0 15.0 15.0 13.7 6.3 1.5 1.1 0.7 1.5 1.2
13.9 15.0 15.0 14.8 9.6 1.0 0.5 0.4 0.6 0.7 3.1 3.8 8.6 2.5 0.9 0.2 0.1 0.1 0.2 5.1 15.0 15.0 6.9 10.9 11.8 15.0 13.8 15.0 15.0 15.0 7.7 5.6 14.8 15.0 15.0 13.7 15.0 15.0 15.0 15.0 15.0 15.0 15.0 7.6 3.1 7.3 11.9 3.3 2.3 1.4 0.7 0.8 0.9 1.0
15.0 15.0 10.8 6.1 0.4 0.2 0.5 3.8 3.9 14.7 10.8 4.5 8.7 10.7 1.2 0.2 0.1 0.1 0.9 1.7 4.3 11.2 14.5 4.3 11.1 11.1 15.0 15.0 7.8 5.6 13.0 2.9 2.9 5.3 6.8 5.9 7.9 14.9 15.0 15.0 15.0 12.1 7.2 3.1 1.7 1.4 1.7 1.2 1.0 1.0 1.1 1.0 1.3 0.3
15.0 6.1 14.9 1.0 0.2 5.1 15.0 15.0 5.9 6.6 4.6 8.6 1.7 3.1 2.4 15.0 1.1 0.6 0.2 0.4 2.6 5.6 4.1 13.6 15.0 15.0 15.0 12.6 2.6 2.5 4.5 7.2 4.9 15.0 14.5 9.6 14.8 15.0 15.0 12.3 8.7 4.6 2.4 1.6 1.3 1.2 1.2 0.9 0.7 0.9 0.6 0.7 0.8 0.2
9.5 15.0 15.0 1.2 0.3 11.0 15.0 15.0 15.0 2.1 2.3 1.3 0.8 0.8 1.2 10.2 1.3 0.5 0.2 0.3 3.2 15.0 15.0 15.0 15.0 11.2 4.8 4.9 13.0 11.3 7.8 15.0 7.2 4.4 14.1 13.5 14.7 7.0 5.9 5.3 4.7 2.3 1.1 0.9 1.0 0.9 0.8 1.1 0.7 0.8 0.6 0.3 0.3 0.3